Ann Arbor, MI

11:18 AM EDT on April 23, 2017 (GMT -0400)
Ann Arbor Municipal

Weather History for KARB - October, 2011

Change the Weather History Date:

Sunday, October 2, 2011

  Actual Average Record
Temperature  
Mean Temperature 50 °F -  
Max Temperature 62 °F 63 °F 81 °F (2013)
Min Temperature 37 °F 37 °F 28 °F (2003)
Degree Days  
Heating Degree Days 16    
Moisture  
Dew Point 36 °F    
Average Humidity 69    
Maximum Humidity 97    
Minimum Humidity 32    
Precipitation  
Precipitation 0.00 in - - ()
Sea Level Pressure  
Sea Level Pressure 30.13 in    
Wind  
Wind Speed 9 mph (NNW)    
Max Wind Speed 17 mph    
Max Gust Speed 25 mph    
Visibility 10 miles    
Events      
Averages and records for this station are not official NWS values.
T = Trace of Precipitation, MM = Missing Value Source: NWS Daily Summary

Daily Weather History Graph

Daily Weather History Graph

Search for Another Location

Airport or City:

Trip Planner

Search our weather history database for the weather conditions in past years. The results will help you decide how hot, cold, wet, or windy it might be!

Date:

Astronomy

Oct. 02, 2011 Rise Set
Actual Time 7:32 AM EDT 7:15 PM EDT
Civil Twilight 7:04 AM EDT 7:43 PM EDT
Nautical Twilight 6:32 AM EDT 8:15 PM EDT
Astronomical Twilight 5:59 AM EDT 8:48 PM EDT
Moon 1:44 PM EDT (10/2) 11:06 PM EDT (10/2)
Length of Visible Light 12h 38m
Length of Day
11h 42m
Waxing Crescent, 34% of the Moon is Illuminated
Oct 2
Waxing Crescent
Oct 3
First Quarter
Oct 11
Full
Oct 19
Last Quarter
Oct 26
New

Hourly Weather History & Observations

Time (EDT) Temp. Windchill Dew Point Humidity Pressure Visibility Wind Dir Wind Speed Gust Speed Precip Events Conditions
12:53 AM 42.1 °F 37.1 °F 37.0 °F 82% 30.18 in 10.0 mi North 8.1 mph - N/A   Clear
1:53 AM 41.0 °F 36.4 °F 37.9 °F 89% 30.17 in 10.0 mi NNW 6.9 mph - N/A   Clear
2:53 AM 39.9 °F 34.5 °F 37.0 °F 89% 30.17 in 10.0 mi NNW 8.1 mph - N/A   Clear
3:53 AM 39.9 °F 34.5 °F 37.0 °F 89% 30.16 in 10.0 mi NNW 8.1 mph - N/A   Clear
4:53 AM 39.0 °F 34.0 °F 37.0 °F 93% 30.17 in 10.0 mi NNW 6.9 mph - N/A   Clear
5:53 AM 37.9 °F 33.5 °F 36.0 °F 93% 30.17 in 10.0 mi NNW 5.8 mph - N/A   Clear
6:53 AM 37.0 °F 31.0 °F 36.0 °F 96% 30.17 in 10.0 mi NNW 8.1 mph - N/A   Clear
7:53 AM 37.9 °F 33.5 °F 37.0 °F 97% 30.17 in 10.0 mi NNW 5.8 mph - N/A   Clear
8:53 AM 42.1 °F 36.6 °F 37.9 °F 85% 30.19 in 10.0 mi North 9.2 mph - N/A   Clear
9:53 AM 46.0 °F 40.6 °F 39.9 °F 79% 30.18 in 10.0 mi North 11.5 mph - N/A   Clear
12:53 PM 55.0 °F - 37.0 °F 51% 30.14 in 10.0 mi NNW 13.8 mph 25.3 mph N/A   Clear
1:53 PM 57.9 °F - 35.1 °F 42% 30.10 in 10.0 mi NNW 17.3 mph 23.0 mph N/A   Clear
3:53 PM 62.1 °F - 33.1 °F 34% 30.06 in 10.0 mi North 15.0 mph 21.9 mph N/A   Clear
5:53 PM 61.0 °F - 30.9 °F 32% 30.05 in 10.0 mi NNW 17.3 mph 25.3 mph N/A   Partly Cloudy
6:53 PM 59.0 °F - 33.1 °F 38% 30.06 in 10.0 mi North 10.4 mph - N/A   Partly Cloudy
7:53 PM 57.0 °F - 35.1 °F 44% 30.06 in 10.0 mi NNW 6.9 mph - N/A   Overcast
9:53 PM 55.0 °F - 39.0 °F 55% 30.10 in 10.0 mi NNE 4.6 mph - N/A   Overcast
10:53 PM 53.1 °F - 34.0 °F 48% 30.11 in 10.0 mi NNE 6.9 mph - N/A   Overcast
11:53 PM 46.0 °F - 39.9 °F 79% 30.09 in 10.0 mi Calm Calm - N/A   Mostly Cloudy